Location: ?????????
(55.6553°N, 38.9075°E)
Time: 03:14:09
(UTC+00:00)

Cosmos 2344 - Pass Details

Date: 18 October 2019
Orbit: 1259 x 2983 km, 63.3° (Epoch: 12 November)

Event Time Altitude Azimuth Distance (km) Brightness Sun altitude
Exits shadow 02:35:26 - 310° (NW) 4,239 5.9 -12.6°
Reaches altitude 10° 02:37:07 10° 308° (NW) 3,692 5.5 -12.4°
Maximum altitude 02:46:17 72° 227° (SW) 1,940 4.4 -11.1°
Drops below altitude 10° 02:58:59 10° 147° (SSE) 4,993 7.2 -9.3°
Sets 03:03:08 0° 146° (SE) 6,222 7.8 -8.7°
